Change the Weather History Date:

Monday, April 21, 2014

  Actual Average Record
Temperature  
Mean Temperature 59 °F 52 °F  
Max Temperature 73 °F 64 °F 95 °F (1980)
Min Temperature 44 °F 40 °F 21 °F (1927)
Degree Days  
Heating Degree Days 6 14  
Month to date heating degree days 354 365  
Since 1 July heating degree days 6648 6314  
Cooling Degree Days 0 1  
Month to date cooling degree days 1 3  
Year to date cooling degree days 1 3  
Growing Degree Days 13 (Base 50)    
Moisture  
Dew Point 35 °F    
Average Humidity 52    
Maximum Humidity 86    
Minimum Humidity 17    
Precipitation  
Precipitation 0.00 in 0.09 in 1.40 in (1984)
Month to date precipitation 1.55 1.75  
Year to date precipitation 2.48 4.87  
Snow  
Snow 0.00 in 0.10 in - ()
Month to date snowfall 4.5 2.2  
Since 1 July snowfall 19.9 30.1  
Snow Depth 0.00 in    
Sea Level Pressure  
Sea Level Pressure 30.03 in    
Wind  
Wind Speed 14 mph (NNW)    
Max Wind Speed 30 mph    
Max Gust Speed 37 mph    
Visibility 10 miles    
Events      
T = Trace of Precipitation, MM = Missing Value Source: NWS Daily Summary

Daily Weather History Graph

Daily Weather History Graph

Search for Another Location

Airport or City:

Trip Planner

Search our weather history database for the weather conditions in past years. The results will help you decide how hot, cold, wet, or windy it might be!

Date:

Astronomy

Apr. 21, 2014 Rise Set
Actual Time 6:39 AM CDT 8:17 PM CDT
Civil Twilight 6:10 AM CDT 8:47 PM CDT
Nautical Twilight 5:34 AM CDT 9:22 PM CDT
Astronomical Twilight 4:56 AM CDT 10:01 PM CDT
Moon 1:50 AM CDT (4/21) 12:06 PM CDT (4/21)
Length of Visible Light 14h 36m
Length of Day
13h 37m
Waning Gibbous, 57% of the Moon is Illuminated
Apr 21
Waning Gibbous
Apr 22
Last Quarter
Apr 29
New
May 6
First Quarter
May 14
Full

Hourly Weather History & Observations

Time (CDT) Temp. Dew Point Humidity Pressure Visibility Wind Dir Wind Speed Gust Speed Precip Events Conditions
12:56 AM 62.1 °F 53.1 °F 72% 29.91 in 10.0 mi SSW 13.8 mph - N/A   Partly Cloudy
1:56 AM 61.0 °F 53.1 °F 75% 29.89 in 10.0 mi SW 4.6 mph - N/A   Clear
2:56 AM 57.9 °F 52.0 °F 81% 29.85 in 10.0 mi SSW 10.4 mph - N/A   Clear
3:56 AM 55.9 °F 51.1 °F 84% 29.89 in 10.0 mi Variable 3.5 mph - N/A   Clear
4:56 AM 57.0 °F 51.1 °F 81% 29.93 in 10.0 mi WNW 6.9 mph - N/A   Clear
5:56 AM 59.0 °F 46.0 °F 62% 29.95 in 10.0 mi NW 11.5 mph - N/A   Clear
6:56 AM 55.9 °F 41.0 °F 57% 29.99 in 10.0 mi NNW 18.4 mph - N/A   Clear
7:56 AM 57.0 °F 36.0 °F 45% 30.03 in 10.0 mi NNW 11.5 mph - N/A   Clear
8:56 AM 59.0 °F 35.1 °F 41% 30.06 in 10.0 mi NNW 10.4 mph - N/A   Clear
9:56 AM 61.0 °F 35.1 °F 38% 30.08 in 10.0 mi North 15.0 mph - N/A   Clear
10:56 AM 64.9 °F 30.0 °F 27% 30.09 in 10.0 mi North 25.3 mph 34.5 mph N/A   Clear
11:56 AM 70.0 °F 30.0 °F 23% 30.09 in 10.0 mi North 27.6 mph 34.5 mph N/A   Clear
12:56 PM 68.0 °F 25.0 °F 20% 30.09 in 10.0 mi North 25.3 mph 34.5 mph N/A   Clear
1:56 PM 71.1 °F 25.0 °F 18% 30.08 in 10.0 mi NNW 26.5 mph 34.5 mph N/A   Clear
2:56 PM 72.0 °F 24.1 °F 17% 30.07 in 10.0 mi North 23.0 mph 33.4 mph N/A   Clear
3:56 PM 72.0 °F 25.0 °F 17% 30.06 in 10.0 mi NNW 24.2 mph 32.2 mph N/A   Clear
4:56 PM 72.0 °F 26.1 °F 18% 30.06 in 10.0 mi NNW 21.9 mph 28.8 mph N/A   Clear
5:56 PM 70.0 °F 27.0 °F 20% 30.06 in 10.0 mi North 17.3 mph 27.6 mph N/A   Clear
6:56 PM 68.0 °F 27.0 °F 21% 30.08 in 10.0 mi North 17.3 mph 26.5 mph N/A   Clear
7:56 PM 64.0 °F 26.1 °F 24% 30.08 in 10.0 mi North 17.3 mph 25.3 mph N/A   Clear
8:56 PM 59.0 °F 28.0 °F 31% 30.11 in 10.0 mi North 11.5 mph - N/A   Clear
9:56 PM 55.0 °F 28.9 °F 37% 30.14 in 10.0 mi North 9.2 mph - N/A   Clear
10:56 PM 53.1 °F 30.0 °F 41% 30.15 in 10.0 mi North 5.8 mph - N/A   Clear
11:56 PM 46.9 °F 30.9 °F 54% 30.15 in 10.0 mi Calm Calm - N/A   Clear